Dewpoint
41 41 41 41 41 40 40 40 40 39 39 39 37 37 37 38 38 38 38 35 34 33 34 34 34 35 36 40 41 42 42 42 42 42 42 42 42 41 41 41 41 41 41 41 41 41 40 40 40 40 40 40 40 40 40 40 40 40 41 41 41 41 41 41 42 42 41 41 41 41 41 40 40 40 40 40 40 41 41 42 42 42 43 43 43 44
40 40 40 40 39 39 39 40 39 39 38 37 36 35 34 35 36 36 36 34 34 34 33 33 34 34 33 38 40 41 41 41 41 41 41 41 41 41 40 40 40 40 40 40 40 40 40 39 39 39 39 39 39 39 39 39 39 39 39 39 39 39 39 39 39 39 39 39 39 39 39 39 39 39 39 39 39 40 40 41 41 42 42 43 43 43
39 39 39 38 38 38 38 39 38 37 36 35 34 34 32 34 34 34 34 33 33 33 32 32 33 34 32 35 38 40 40 40 40 40 40 40 40 40 40 39 39 39 39 39 39 39 39 39 39 39 38 38 38 38 38 38 38 38 38 38 38 38 38 38 38 38 37 38 37 37 37 37 37 38 38 39 39 39 39 40 40 40 41 42 42 43
39 39 38 37 37 36 36 36 35 35 35 34 32 31 30 33 33 32 31 31 30 30 30 29 30 32 32 33 36 39 39 39 39 39 39 39 39 39 39 39 39 39 39 38 38 38 38 38 38 37 37 37 37 37 37 37 36 36 36 36 36 36 36 36 36 36 35 36 36 36 36 36 36 37 37 37 38 38 39 39 39 39 40 40 41 42
38 38 37 37 36 35 34 33 34 34 34 32 30 29 29 30 30 30 29 30 29 28 28 28 29 30 31 31 34 38 38 38 38 38 38 38 38 38 38 38 38 38 38 37 37 37 37 37 36 36 36 36 36 36 36 35 35 35 35 35 34 34 34 34 34 34 34 34 34 34 35 35 35 36 36 36 37 37 37 38 38 38 39 39 40 41
37 36 36 36 35 35 34 33 33 33 32 30 29 28 28 28 28 28 28 30 30 29 29 28 27 26 27 30 34 38 38 37 37 38 38 38 38 37 37 37 37 37 36 36 36 36 35 35 35 35 35 35 34 34 34 34 34 34 34 34 34 34 33 33 34 34 34 34 34 34 34 34 34 35 35 35 35 36 36 36 37 37 38 38 39 39
35 34 34 34 34 34 33 31 32 32 30 30 29 28 28 27 26 25 25 26 27 28 28 29 28 26 25 28 32 35 36 37 38 38 38 38 38 37 36 36 35 35 35 34 34 34 34 34 34 34 34 33 34 34 34 33 33 33 33 33 33 33 33 33 33 33 33 33 33 33 34 34 34 34 34 34 34 35 35 36 36 36 37 37 37 38
34 34 33 33 33 33 32 30 30 30 29 29 29 29 29 28 27 25 24 24 25 25 27 30 29 28 25 25 28 31 33 33 34 35 36 37 38 37 36 35 34 34 33 33 32 32 32 32 32 32 32 32 32 33 33 33 33 33 33 33 32 32 32 32 32 32 32 32 33 33 33 33 34 34 34 34 34 34 34 35 35 36 36 36 36 37
35 34 33 32 32 33 33 31 29 27 26 27 28 28 29 28 28 27 27 26 25 25 25 27 29 29 26 24 25 28 32 33 33 32 33 33 34 35 36 35 34 34 32 32 32 31 31 31 31 31 31 32 32 32 33 33 33 33 32 32 32 32 31 32 32 32 32 32 32 32 33 33 34 34 34 34 34 34 34 34 34 35 35 35 35 36
36 34 33 30 30 30 31 31 29 26 24 25 25 26 27 27 28 29 29 28 26 25 25 25 26 27 26 25 25 26 29 32 34 34 34 33 33 34 35 35 34 34 33 33 33 32 32 31 31 31 31 31 31 31 31 31 31 31 31 31 31 31 31 31 31 31 31 32 32 32 32 33 33 34 34 34 34 34 34 34 34 34 34 34 35 35
34 34 32 30 29 28 28 28 27 25 22 24 25 25 25 25 27 28 29 27 25 25 24 24 23 24 25 24 25 25 25 26 27 30 31 31 31 32 32 32 33 33 33 33 34 34 33 32 31 31 31 30 30 30 30 29 29 30 30 30 30 30 30 30 31 31 31 32 32 32 32 33 33 34 34 34 34 34 34 34 34 34 34 34 34 34
33 32 31 30 29 28 27 26 26 25 25 26 26 25 25 24 24 25 28 26 25 24 23 23 22 22 22 22 23 24 23 23 23 23 24 25 26 27 27 27 28 30 30 31 33 33 34 34 33 32 31 30 29 29 28 29 29 28 28 28 29 29 30 30 31 31 32 32 32 32 32 33 33 33 34 34 34 34 34 34 34 34 34 34 34 34
30 29 28 28 28 27 27 26 26 26 26 26 26 26 25 23 22 22 24 24 23 22 21 22 22 22 21 21 21 22 21 22 22 22 22 22 22 21 21 22 22 23 23 24 25 28 34 34 34 33 32 31 30 29 28 28 28 27 27 28 28 29 30 30 31 31 32 32 32 32 32 33 33 33 33 33 34 34 34 34 34 34 34 34 34 34
29 28 29 30 28 27 25 26 27 27 26 25 25 25 24 22 21 21 22 22 21 21 20 21 22 22 22 21 21 21 20 21 22 22 23 22 20 19 19 21 21 21 21 21 21 24 31 31 29 28 32 32 31 30 30 28 27 27 27 28 29 30 30 31 31 32 32 32 32 32 32 32 33 33 33 33 33 33 33 33 33 33 33 34 34 34
30 29 30 30 28 26 24 25 25 25 24 22 22 22 22 21 21 22 23 22 21 20 20 21 21 22 22 21 21 20 19 21 22 22 22 22 20 17 17 20 21 21 20 20 21 22 28 25 23 23 25 28 29 30 31 32 30 28 29 29 30 30 30 31 31 31 32 32 32 32 32 32 32 33 33 33 33 33 33 33 33 33 33 33 33 33
28 29 30 29 27 25 23 22 23 24 22 21 21 21 22 22 21 21 22 21 20 20 21 21 21 21 22 22 22 21 20 21 21 21 21 22 21 18 15 19 21 21 20 21 21 21 21 21 20 21 21 26 29 30 29 30 30 29 29 30 30 30 30 31 31 31 32 32 32 32 32 32 32 33 33 33 33 33 33 32 32 32 32 32 33 33
25 27 27 27 26 24 21 21 21 21 21 20 20 20 21 21 20 20 20 19 19 20 21 21 21 21 20 21 22 21 19 20 20 20 20 21 21 19 16 19 21 21 20 21 20 20 20 21 21 21 22 28 30 30 29 28 29 29 29 30 30 30 30 31 31 31 31 31 31 31 32 32 32 32 33 33 33 33 33 32 32 32 32 32 32 32
24 24 25 26 25 24 21 20 19 19 19 20 20 19 18 17 18 18 18 19 20 20 19 19 19 19 18 20 21 21 18 19 20 20 20 21 20 18 16 17 19 20 19 19 19 19 19 18 18 20 24 30 31 30 29 28 28 29 29 30 30 30 30 31 31 31 31 31 31 31 32 32 33 33 33 33 33 33 33 33 32 32 32 32 32 32
23 22 24 25 24 22 20 20 20 20 21 21 21 20 19 18 18 17 18 18 18 19 18 18 17 16 17 19 20 20 17 18 20 20 20 20 19 18 15 17 19 20 18 19 20 20 18 17 21 25 30 31 31 30 29 28 28 29 29 29 30 30 30 30 30 30 31 31 31 31 32 32 33 33 34 34 34 34 34 33 33 34 34 34 34 33
23 22 23 23 23 21 21 22 23 23 24 24 23 22 20 19 18 18 17 17 16 16 16 18 17 17 16 18 19 18 16 18 19 20 18 18 18 17 14 16 18 19 17 18 18 17 16 16 18 22 28 30 30 30 28 28 28 29 29 30 30 30 30 30 30 30 30 31 31 31 31 32 32 32 33 33 34 34 34 34 35 36 36 37 36 36
24 23 22 23 24 24 24 24 24 25 26 25 24 22 21 19 19 19 17 17 16 16 16 18 18 18 17 18 19 18 15 18 20 19 16 16 16 17 15 14 15 16 18 18 18 16 16 15 15 18 26 29 30 30 29 28 29 29 29 30 30 30 29 29 30 30 30 31 31 31 31 31 31 31 31 32 32 32 33 34 34 34 35 36 36 37
26 24 21 21 23 25 27 25 25 27 28 26 25 24 22 21 20 19 17 17 17 18 19 19 19 18 18 18 19 17 14 18 19 19 16 17 17 17 16 14 15 16 18 18 17 16 14 15 16 19 26 30 30 30 29 29 29 29 29 30 29 29 29 30 30 30 30 30 30 31 31 31 31 31 31 31 31 32 32 32 32 33 33 34 34 34
25 24 21 20 21 24 25 25 25 26 27 26 25 25 23 23 23 22 21 20 19 19 18 18 18 17 16 17 17 17 16 17 18 18 18 18 18 17 16 15 16 17 18 18 17 16 15 16 17 20 26 30 30 30 30 30 29 29 29 29 29 29 29 30 30 30 30 31 31 31 31 31 32 32 32 32 32 32 32 32 32 32 32 32 33 33
24 23 21 21 21 21 23 25 25 25 24 24 23 22 21 22 22 21 21 20 19 18 16 16 17 17 17 18 18 17 16 18 17 17 19 19 19 18 16 16 17 19 20 19 16 15 16 17 18 20 23 27 30 30 30 30 30 30 29 29 29 29 29 29 30 30 30 30 30 31 31 31 32 32 32 32 32 32 32 32 32 32 32 32 32 33
24 23 23 23 24 25 26 26 26 25 24 22 22 23 23 24 23 22 21 20 19 18 18 18 18 18 16 19 19 17 16 16 16 17 18 18 17 16 15 15 16 18 19 17 16 15 15 17 18 18 19 23 27 31 31 30 30 29 29 29 29 29 29 29 29 29 30 30 30 30 30 31 31 31 31 31 32 32 32 32 32 32 32 32 32 32
28 27 27 28 30 31 31 31 30 30 28 26 25 25 26 25 24 23 21 21 20 19 20 18 17 16 14 14 16 17 16 16 16 16 17 17 17 16 15 14 14 15 17 16 16 16 17 19 18 17 17 19 25 30 30 30 30 29 29 28 28 28 28 28 29 29 29 29 30 30 30 30 30 30 30 31 31 31 31 31 32 32 32 32 32 32
33 33 33 33 33 33 33 33 33 32 32 30 29 27 25 24 23 22 21 19 18 18 19 16 15 15 14 14 15 16 16 17 16 15 16 17 17 17 16 14 13 14 16 16 16 18 21 21 20 19 18 16 20 25 29 30 29 29 28 28 28 28 28 28 28 29 29 29 30 30 30 30 30 30 30 30 30 30 31 31 31 32 32 32 32 32
34 34 34 34 33 33 33 34 34 33 33 33 32 30 27 25 23 22 21 18 18 18 18 17 16 15 15 15 15 15 15 17 17 16 16 17 18 17 15 13 12 12 14 16 17 19 22 21 19 17 16 16 19 22 27 29 29 29 28 28 27 27 27 28 28 29 29 29 30 30 30 30 30 30 30 30 30 30 30 31 31 31 32 32 32 32
33 33 33 33 32 32 32 33 33 33 33 33 33 31 28 25 23 22 21 19 18 19 19 18 17 16 15 13 13 14 15 17 18 18 17 18 17 16 13 12 12 12 13 15 16 17 17 17 16 14 13 19 21 21 21 25 26 27 28 28 28 28 28 28 28 29 29 29 30 30 30 30 30 30 30 30 30 30 30 30 31 31 31 32 31 30
27 27 27 27 27 28 28 28 30 32 33 34 33 32 29 26 24 23 21 21 20 20 19 18 17 16 13 13 13 14 15 16 17 19 18 18 17 15 13 13 12 12 12 15 15 15 15 17 17 16 16 20 20 19 17 20 21 23 24 26 27 28 29 28 28 28 29 29 29 29 29 30 30 30 30 30 30 30 30 30 30 30 31 31 31 30
22 22 21 20 20 21 22 23 25 28 30 31 32 31 29 26 24 22 21 21 21 21 19 18 17 16 14 15 14 14 14 15 17 20 17 18 16 15 12 13 12 12 11 14 15 15 15 16 18 18 17 17 17 17 18 19 20 19 19 21 23 25 29 28 28 28 28 28 29 29 29 29 29 29 29 29 30 30 30 30 30 30 30 30 30 30
21 21 20 19 18 18 19 19 20 21 23 25 26 27 28 26 24 22 22 22 21 21 19 18 17 16 15 16 16 15 15 15 18 21 18 17 16 13 11 12 12 12 12 13 14 14 13 15 17 18 16 15 15 16 19 21 20 18 19 20 21 22 28 29 28 27 27 28 29 29 29 29 29 29 29 29 29 30 30 30 30 30 30 30 30 29
21 20 18 19 18 17 17 16 17 18 20 20 21 22 24 25 25 24 22 22 22 21 20 19 17 15 14 15 15 15 16 16 19 22 22 18 16 13 11 12 12 12 12 12 12 12 12 12 13 14 15 15 16 16 18 21 21 19 18 19 19 20 24 26 26 25 26 27 28 28 29 29 29 29 29 30 30 30 30 30 30 30 30 30 30 30
21 20 19 18 17 17 17 16 16 17 18 19 20 20 20 21 23 24 23 22 21 21 21 20 18 16 15 14 14 15 16 17 20 24 27 20 16 14 12 12 11 11 11 11 10 9 9 9 10 12 14 16 16 17 17 18 19 18 15 16 17 18 20 22 22 23 24 25 24 24 25 26 27 29 29 30 30 30 30 30 30 30 30 30 30 30
20 20 19 17 17 17 18 17 17 18 18 18 19 20 20 20 21 21 22 22 21 21 21 21 20 19 18 16 16 16 17 17 20 25 29 21 16 14 12 12 12 12 12 11 10 10 10 11 12 12 14 16 16 16 16 16 16 16 14 16 16 16 17 18 19 20 21 21 21 21 21 21 23 25 27 29 30 30 30 30 30 30 30 31 31 30
20 20 18 16 16 17 17 18 18 17 17 17 17 17 18 18 18 19 20 20 21 21 21 21 21 20 19 18 17 17 17 16 19 24 28 21 17 16 15 14 13 13 13 12 11 10 11 12 13 15 16 16 16 16 17 16 15 16 16 16 16 16 16 16 16 17 17 18 19 20 19 20 22 23 25 28 29 29 29 29 30 30 30 30 30 30
19 19 18 16 15 16 17 16 16 15 15 15 15 15 16 16 16 17 16 16 18 20 22 22 21 21 21 19 18 18 18 17 18 22 27 21 18 17 16 15 16 16 14 14 13 12 12 13 14 15 16 15 14 14 15 16 16 16 16 17 17 17 16 16 17 16 16 18 19 20 21 22 23 24 25 27 28 28 28 28 29 29 30 30 30 30
18 18 17 15 14 14 15 14 15 15 15 15 15 16 15 14 14 14 14 13 13 15 17 19 19 20 23 22 20 17 16 15 15 17 24 19 17 18 17 16 16 17 16 15 14 14 14 14 14 14 13 12 13 16 17 17 16 16 16 17 17 16 16 15 15 15 16 17 20 22 24 24 22 21 21 23 23 23 23 24 25 28 29 28 29 29
17 16 16 16 15 14 14 13 14 15 16 16 16 16 14 14 14 14 13 12 12 12 13 15 16 16 15 16 19 20 19 16 13 13 16 15 16 17 19 17 16 16 16 14 14 14 15 14 12 12 12 11 12 14 15 15 14 14 15 16 17 16 16 15 16 16 17 17 19 22 22 20 18 18 18 18 19 20 21 21 23 25 25 24 25 27
17 16 16 18 17 16 14 15 16 15 15 16 17 17 16 16 15 14 14 14 14 13 11 11 12 13 14 16 19 20 21 19 17 15 12 12 13 16 19 17 16 16 15 12 12 13 15 13 13 14 15 13 13 14 15 13 14 16 19 17 16 16 18 18 16 15 16 16 16 17 18 16 16 17 18 18 18 19 19 19 20 21 23 21 19 20
18 17 17 19 19 19 19 19 17 16 15 15 14 15 16 16 16 16 16 16 16 15 15 15 14 13 12 11 11 12 15 16 18 17 8 9 11 14 18 18 17 16 15 13 12 12 15 14 14 15 15 16 17 18 18 17 18 21 22 19 17 18 20 21 20 17 16 14 14 15 17 18 20 21 20 21 20 19 19 19 18 19 22 20 18 16
21 20 19 19 18 18 16 15 16 16 15 14 14 15 16 16 16 16 16 16 15 14 13 14 14 14 14 13 11 9 9 10 14 16 12 9 10 12 16 17 18 17 16 14 12 12 15 16 16 17 18 19 19 19 18 18 19 21 21 20 20 21 21 20 16 12 12 12 11 12 17 18 18 19 20 19 18 18 20 19 20 22 24 20 17 16
22 21 20 18 16 16 16 17 17 17 17 16 15 15 15 14 15 16 17 15 14 14 14 13 13 14 13 13 12 12 9 7 8 12 15 12 10 11 14 15 16 17 17 16 14 14 15 18 19 20 20 20 20 19 19 19 20 20 21 21 21 20 17 16 12 9 11 13 13 12 14 16 17 17 18 19 19 19 19 21 24 25 26 23 19 16
21 21 18 16 15 16 17 17 17 16 16 16 16 16 14 13 15 17 17 14 13 13 12 11 11 11 12 11 11 12 11 9 8 9 13 15 13 11 12 13 13 15 17 17 16 16 16 19 21 21 21 21 21 20 20 19 19 19 19 21 21 20 18 16 15 14 14 16 17 16 14 16 16 16 17 17 17 18 18 19 19 20 23 22 21 19
18 18 16 16 17 17 17 16 16 16 16 16 16 15 14 13 16 17 16 13 12 12 10 11 12 12 11 10 10 10 10 11 12 12 12 17 20 20 16 13 13 14 18 19 19 19 19 20 21 21 21 21 21 21 20 20 19 19 20 21 21 21 20 19 18 18 18 18 18 17 15 15 14 14 15 16 16 16 17 17 17 18 20 20 20 19
19 18 17 17 17 17 18 17 16 16 15 16 16 15 14 13 14 15 16 13 12 11 9 10 12 13 13 12 11 9 10 11 12 14 14 13 14 16 19 18 17 18 19 21 21 21 21 21 21 21 21 21 21 21 20 20 19 19 19 20 20 20 20 19 18 18 17 18 17 16 16 13 12 14 16 16 16 16 16 17 17 18 19 19 19 19
19 18 17 16 16 17 18 17 16 16 16 16 16 15 13 12 12 13 14 13 11 10 11 11 12 12 12 12 10 9 11 11 12 12 13 14 14 14 15 18 21 21 21 22 22 22 23 23 22 22 21 21 21 20 20 20 20 19 18 18 18 18 19 18 17 16 16 17 17 16 14 12 12 14 16 16 17 17 17 17 18 18 19 20 20 20
21 20 19 18 17 17 17 17 16 15 16 16 16 14 13 12 12 12 10 11 12 12 13 11 10 10 11 10 10 11 13 12 12 12 12 13 13 14 15 17 20 22 23 24 24 24 24 24 24 24 23 21 21 20 20 20 20 20 19 18 18 19 19 18 17 16 16 16 16 15 15 15 15 15 15 16 18 18 18 18 18 19 20 21 21 21
22 21 21 19 18 17 17 16 15 15 15 15 14 13 11 13 16 16 11 10 10 12 12 12 11 11 11 10 11 12 14 13 12 12 11 12 13 14 15 16 18 20 21 24 25 25 25 25 25 25 25 23 22 21 20 20 20 20 20 20 20 20 20 19 18 18 17 16 14 12 12 15 16 16 16 17 18 19 19 19 18 18 19 21 21 22
22 21 21 20 19 18 17 17 16 16 15 16 15 13 9 9 12 14 12 11 10 11 11 12 12 12 12 11 11 12 13 12 11 11 11 11 13 14 16 16 17 18 19 20 22 23 23 24 24 25 26 26 25 23 21 21 21 21 21 21 21 20 20 19 19 19 18 17 15 13 12 13 14 15 16 17 19 20 20 20 20 20 19 19 20 21
23 22 21 20 20 20 19 18 17 17 17 16 16 15 12 9 9 10 10 11 11 11 11 12 12 13 13 13 13 13 13 12 12 12 13 12 13 14 16 16 16 16 16 16 17 18 18 17 17 19 21 25 26 25 23 22 21 21 21 21 21 21 21 19 19 19 20 19 17 15 13 13 14 15 16 17 18 20 20 20 19 19 18 16 17 18